QTR216 DTTA-FIMP

Flight info

Callsign QTR216
Flight time N/A
Altitude 35000
Route GIBLI2C GIBLI A411 VAXAL UA411 MON UP868 NIGAT DCT ELIMO M732 DITAR R2 ATMUL N314 KUVTI/N0498F370 N314 TIKAT G300 MAV UM665 ITLOX/N0494F380 UM665 ANKOR/N0491F390 UA665 UVDUK/N0489F380 UL441 IXEBU/N0491F390 UN304 PONIR UA400 RASMA RASMA2F
Aircraft A388/J-SADE2E3FGHIJ3J4J5M1RWXY/LB1D1

Departure

Time 2026-05-06 09:06
Airport Tunis Carthage International Airport (DTTA)

Arrival

Time N/A
Airport Sir Seewoosagur Ramgoolam International Airport (FIMP)
Time Latitude Longitude Altitude Speed Heading
2026-05-06 08:31 36.84516 10.21953 35 ft 0 kts 356°
2026-05-06 08:41 36.84512 10.21954 35 ft 3 kts 356°
2026-05-06 08:41 36.84485 10.21956 35 ft 4 kts 356°
2026-05-06 08:42 36.84462 10.21957 32 ft 4 kts
2026-05-06 08:42 36.84445 10.21948 33 ft 4 kts 46°
2026-05-06 08:42 36.84437 10.21928 30 ft 4 kts 84°
2026-05-06 08:42 36.84437 10.21895 31 ft 4 kts 93°
2026-05-06 08:43 36.84438 10.21877 31 ft 1 kts 92°
2026-05-06 08:43 36.84438 10.21875 31 ft 0 kts 92°
2026-05-06 08:46 36.84437 10.21899 31 ft 7 kts 93°
2026-05-06 08:46 36.84454 10.22006 35 ft 17 kts 62°
2026-05-06 08:46 36.84498 10.22146 35 ft 11 kts 91°
2026-05-06 08:46 36.84495 10.22226 35 ft 14 kts 70°
2026-05-06 08:47 36.84587 10.22286 35 ft 16 kts
2026-05-06 08:47 36.84724 10.22312 35 ft 17 kts
2026-05-06 08:47 36.84829 10.22336 35 ft 16 kts 13°
2026-05-06 08:47 36.84935 10.22370 36 ft 16 kts 14°
2026-05-06 08:48 36.85016 10.22330 36 ft 12 kts 300°
2026-05-06 08:48 36.85051 10.22225 36 ft 14 kts 288°
2026-05-06 08:48 36.85086 10.22101 35 ft 15 kts 289°
2026-05-06 08:48 36.85106 10.22034 35 ft 0 kts 290°
2026-05-06 09:02 36.85138 10.21936 35 ft 25 kts 306°
2026-05-06 09:02 36.85203 10.21799 35 ft 9 kts 297°
2026-05-06 09:03 36.85250 10.21754 35 ft 7 kts 345°
2026-05-06 09:03 36.85282 10.21744 35 ft 3 kts 356°
2026-05-06 09:03 36.85312 10.21743 35 ft 6 kts
2026-05-06 09:03 36.85367 10.21766 36 ft 9 kts 28°
2026-05-06 09:04 36.85387 10.21780 36 ft 0 kts 32°
2026-05-06 09:04 36.85398 10.21791 36 ft 0 kts 46°
2026-05-06 09:04 36.85412 10.21821 37 ft 6 kts 88°
2026-05-06 09:04 36.85406 10.21845 37 ft 0 kts 121°
2026-05-06 09:05 36.85406 10.21846 37 ft 2 kts 121°
2026-05-06 09:05 36.85382 10.21904 37 ft 28 kts 112°
2026-05-06 09:05 36.85229 10.22412 40 ft 99 kts 111°
2026-05-06 09:05 36.84882 10.23465 34 ft 157 kts 109°
2026-05-06 09:06 36.84494 10.24852 272 ft 178 kts 111°
2026-05-06 09:06 36.84005 10.26286 800 ft 173 kts 114°
2026-05-06 09:06 36.83558 10.27592 1677 ft 156 kts 115°
2026-05-06 09:06 36.83126 10.28880 2060 ft 170 kts 115°
2026-05-06 09:07 36.82478 10.30164 2175 ft 184 kts 145°
2026-05-06 09:07 36.81223 10.30580 2311 ft 198 kts 178°
2026-05-06 09:07 36.79810 10.30406 2499 ft 208 kts 185°
2026-05-06 09:07 36.78382 10.30112 2719 ft 212 kts 187°
2026-05-06 09:08 36.76927 10.29769 2945 ft 213 kts 188°
2026-05-06 09:08 36.75461 10.29391 3144 ft 217 kts 188°
2026-05-06 09:08 36.73981 10.29020 3489 ft 216 kts 187°
2026-05-06 09:08 36.72497 10.28912 4127 ft 209 kts 169°
2026-05-06 09:09 36.71110 10.29443 4803 ft 211 kts 156°
2026-05-06 09:09 36.69720 10.30206 5184 ft 226 kts 158°
2026-05-06 09:09 36.68204 10.30972 5430 ft 244 kts 160°
2026-05-06 09:09 36.66557 10.31765 5705 ft 260 kts 160°
2026-05-06 09:10 36.64871 10.32558 6350 ft 263 kts 162°
2026-05-06 09:10 36.63150 10.33373 6981 ft 266 kts 161°
2026-05-06 09:10 36.61425 10.34196 7577 ft 271 kts 161°
2026-05-06 09:10 36.59671 10.35046 8224 ft 273 kts 161°
2026-05-06 09:11 36.57886 10.35898 8819 ft 277 kts 163°
2026-05-06 09:11 36.56068 10.36773 9470 ft 280 kts 161°
2026-05-06 09:11 36.54229 10.37674 10099 ft 284 kts 162°
2026-05-06 09:11 36.52358 10.38567 10394 ft 297 kts 162°
2026-05-06 09:12 36.50357 10.39512 10563 ft 314 kts 162°
2026-05-06 09:12 36.48258 10.40503 10826 ft 327 kts 162°
2026-05-06 09:12 36.46159 10.41505 11354 ft 330 kts 162°
2026-05-06 09:12 36.43997 10.42544 11855 ft 334 kts 162°
2026-05-06 09:13 36.41798 10.43616 12370 ft 337 kts 162°
2026-05-06 09:13 36.39601 10.44663 12878 ft 340 kts 163°
2026-05-06 09:13 36.37372 10.45716 13408 ft 344 kts 163°
2026-05-06 09:13 36.35128 10.46788 13919 ft 347 kts 163°
2026-05-06 09:14 36.32864 10.47877 14402 ft 350 kts 163°
2026-05-06 09:14 36.30584 10.48976 14848 ft 353 kts 163°
2026-05-06 09:14 36.28289 10.50081 15291 ft 356 kts 163°
2026-05-06 09:14 36.25959 10.51193 15697 ft 361 kts 163°
2026-05-06 09:15 36.23602 10.52301 16178 ft 363 kts 163°
2026-05-06 09:15 36.21231 10.53414 16623 ft 366 kts 163°
2026-05-06 09:15 36.18840 10.54536 17078 ft 369 kts 163°
2026-05-06 09:15 36.16433 10.55667 17521 ft 372 kts 164°
2026-05-06 09:16 36.14067 10.56779 17963 ft 374 kts 164°
2026-05-06 09:16 36.11608 10.57935 18348 ft 378 kts 163°
2026-05-06 09:16 36.09122 10.59102 18707 ft 381 kts 163°
2026-05-06 09:16 36.06661 10.60257 19061 ft 383 kts 163°
2026-05-06 09:17 36.04156 10.61432 19414 ft 386 kts 163°
2026-05-06 09:17 36.01634 10.62615 19726 ft 390 kts 164°
2026-05-06 09:17 35.99072 10.63804 20041 ft 394 kts 164°
2026-05-06 09:17 35.96498 10.64990 20396 ft 396 kts 164°
2026-05-06 09:18 35.94050 10.66142 20727 ft 399 kts 163°
2026-05-06 09:18 35.91320 10.67431 21091 ft 402 kts 164°
2026-05-06 09:18 35.88695 10.68664 21441 ft 405 kts 164°
2026-05-06 09:18 35.86079 10.69887 21782 ft 407 kts 164°
2026-05-06 09:19 35.83429 10.71123 22094 ft 410 kts 164°
2026-05-06 09:19 35.80717 10.72401 22437 ft 414 kts 161°
2026-05-06 09:19 35.78220 10.74201 22759 ft 426 kts 146°
2026-05-06 09:19 35.76127 10.76766 23063 ft 436 kts 131°